{"data":{"norad_id":40269,"intl_designator":"2014-061A","name":"IRNSS-1C","alt_names":[],"object_type":"PAYLOAD","status":"ACTIVE","operator":null,"country":"IND","launch_date":"2014-10-15","launch_site_code":"SRILR","launch_vehicle":null,"mission":null,"orbit_class":"UNKNOWN","rcs_meters":0.003,"size_class":null,"mass_kg":null,"dimensions":null,"purposes":["comms","nav"],"wikipedia_slug":null,"has_3d_model":false,"image_url":null,"decayed_at":null,"tle_current":{"epoch":"2026-09-20T00:12:32.176800Z","epoch_age_seconds":56933,"freshness":"FRESH","line1":"1 40269U 14061A   26263.00870575 -.00000164  00000+0  00000+0 0  9994","line2":"2 40269   6.7537  87.1033 0019863  10.2953 347.6738  1.00270039 43636","mean_motion":1.00270039,"eccentricity":0.0019863,"inclination_deg":6.7537,"raan_deg":87.1033,"arg_perigee_deg":10.2953,"mean_anomaly_deg":347.6738,"bstar":0,"rev_number":4363,"period_min":1436.1219107534,"perigee_km":35703.331656138,"apogee_km":35870.837214812,"semimajor_km":42165.221435475,"source":"CELESTRAK","updated_at":"2026-09-20T09:00:45.774180Z"}}}